Location: Bacharowice
(49.9333°N, 19.5833°E)
Time: 22:12:57
(UTC+00:00)

Meteor 1-25 Rocket - Pass Details

Date: 11 May 2021
Orbit: 838 x 890 km, 81.2° (Epoch: 21 June)

Event Time Altitude Azimuth Distance (km) Brightness Sun altitude
Rises 18:56:12 0° 347° (NNW) 3,505 8.3 -6.3°
Reaches altitude 10° 18:58:40 10° 347° (NNW) 2,565 7.6 -6.6°
Maximum altitude 19:04:32 88° 258° (WSW) 899 4.4 -7.3°
Drops below altitude 10° 19:10:22 10° 171° (S) 2,551 6.3 -8.0°
Enters shadow 19:12:26 - 171° (S) 3,343 6.8 -8.3°
